Tracking 20232 objects as of 22-Jan-2020
HD Live streaming from Space Station
objects crossing your sky now

MEV-1

Track MEV-1 now!


NORAD ID: 44625
Int'l Code: 2019-067B
Perigee: 33,885.0 km
Apogee: 39,357.5 km
Inclination: 1.7 °
Period: 1,478.6 minutes
Semi major axis: 42992 km
RCS: Unknown
Launch date: October 9, 2019
Source: United States (US)
Launch site: TYURATAM MISSILE AND SPACE COMPLEX (TTMTR)
aabbcc
Your satellite tracking list
Your tracking list is empty




NASA's NSSDC Master Catalog

Two Line Element Set (TLE):
1 44625U 19067B   20021.93421149 -.00000181  00000-0  00000+0 0  9992
2 44625   1.6741 115.2704 0636453 247.4136  35.9528  0.97390727   945
Source of the keplerian elements: AFSPC